Time,TemperatureF,DewpointF,PressureIn,WindDirection,WindDirectionDegrees,WindSpeedMPH,WindSpeedGustMPH,Humidity,HourlyPrecipIn,Conditions,Clouds,dailyrainin,SoftwareType,DateUTC
2013-02-18 00:02:00,50.0,-99.9,29.98,ESE,108,3.0,4.0,-999,-99.99,,,-99.99,,2013-02-18 08:02:00,
2013-02-18 00:11:00,50.0,-99.9,29.99,East,81,2.0,3.0,-999,-99.99,,,-99.99,,2013-02-18 08:11:00,
2013-02-18 00:22:00,50.0,-99.9,29.99,NW,314,2.0,5.0,-999,-99.99,,,-99.99,,2013-02-18 08:22:00,
2013-02-18 00:33:00,50.0,-99.9,29.99,SE,136,2.0,4.0,-999,-99.99,,,-99.99,,2013-02-18 08:33:00,
2013-02-18 00:42:00,49.0,-99.9,29.99,SSE,156,4.0,8.0,-999,-99.99,,,-99.99,,2013-02-18 08:42:00,
2013-02-18 00:52:00,49.0,-99.9,29.99,SSW,204,2.0,6.0,-999,-99.99,,,-99.99,,2013-02-18 08:52:00,
2013-02-18 01:03:00,49.0,-99.9,29.99,South,186,2.0,10.0,-999,-99.99,,,-99.99,,2013-02-18 09:03:00,
2013-02-18 01:11:00,49.0,-99.9,29.99,ESE,115,2.0,6.0,-999,-99.99,,,-99.99,,2013-02-18 09:11:00,
2013-02-18 01:22:00,49.0,-99.9,29.99,SW,232,3.0,6.0,-999,-99.99,,,-99.99,,2013-02-18 09:22:00,
2013-02-18 01:32:00,49.0,-99.9,30.00,West,267,2.0,9.0,-999,-99.99,,,-99.99,,2013-02-18 09:32:00,
2013-02-18 01:42:00,49.0,-99.9,29.99,East,85,3.0,7.0,-999,-99.99,,,-99.99,,2013-02-18 09:42:00,
2013-02-18 01:52:00,49.0,-99.9,29.99,West,280,2.0,8.0,-999,-99.99,,,-99.99,,2013-02-18 09:52:00,
2013-02-18 02:01:00,49.0,-99.9,29.99,NE,34,2.0,5.0,-999,-99.99,,,-99.99,,2013-02-18 10:01:00,
2013-02-18 02:12:00,49.0,-99.9,29.99,West,269,2.0,4.0,-999,-99.99,,,-99.99,,2013-02-18 10:12:00,
2013-02-18 02:22:00,49.0,-99.9,29.99,SW,223,3.0,11.0,-999,-99.99,,,-99.99,,2013-02-18 10:22:00,
2013-02-18 02:32:00,49.0,-99.9,29.99,South,183,2.0,7.0,-999,-99.99,,,-99.99,,2013-02-18 10:32:00,
2013-02-18 02:43:00,49.0,-99.9,29.99,North,9,1.0,7.0,-999,-99.99,,,-99.99,,2013-02-18 10:43:00,
2013-02-18 02:53:00,49.0,-99.9,29.99,NNE,16,1.0,3.0,-999,-99.99,,,-99.99,,2013-02-18 10:53:00,
2013-02-18 03:02:00,49.0,-99.9,29.98,NNE,15,1.0,5.0,-999,-99.99,,,-99.99,,2013-02-18 11:02:00,
2013-02-18 03:12:00,49.0,-99.9,29.98,SW,226,3.0,8.0,-999,-99.99,,,-99.99,,2013-02-18 11:12:00,
2013-02-18 03:22:00,48.0,-99.9,29.98,WSW,247,7.0,12.0,-999,-99.99,,,-99.99,,2013-02-18 11:22:00,
2013-02-18 03:33:00,48.0,-99.9,29.98,SW,232,4.0,15.0,-999,-99.99,,,-99.99,,2013-02-18 11:33:00,
2013-02-18 03:43:00,48.0,-99.9,29.98,SW,232,4.0,15.0,-999,-99.99,,,-99.99,,2013-02-18 11:43:00,
2013-02-18 03:54:00,48.0,-99.9,29.97,SW,227,5.0,9.0,-999,-99.99,,,-99.99,,2013-02-18 11:54:00,
2013-02-18 04:02:00,48.0,-99.9,29.98,SSE,147,4.0,8.0,-999,-99.99,,,-99.99,,2013-02-18 12:02:00,
2013-02-18 04:12:00,48.0,-99.9,29.97,North,3,1.0,4.0,-999,-99.99,,,-99.99,,2013-02-18 12:12:00,
2013-02-18 04:22:00,48.0,-99.9,29.97,East,94,3.0,6.0,-999,-99.99,,,-99.99,,2013-02-18 12:22:00,
2013-02-18 04:32:00,48.0,-99.9,29.98,SW,235,8.0,15.0,-999,-99.99,,,-99.99,,2013-02-18 12:32:00,
2013-02-18 04:42:00,48.0,-99.9,29.98,WSW,239,7.0,10.0,-999,-99.99,,,-99.99,,2013-02-18 12:42:00,
2013-02-18 04:54:00,48.0,-99.9,29.98,WSW,257,6.0,11.0,-999,-99.99,,,-99.99,,2013-02-18 12:54:00,
2013-02-18 05:03:00,48.0,-99.9,29.98,SSW,205,4.0,13.0,-999,-99.99,,,-99.99,,2013-02-18 13:03:00,
2013-02-18 05:12:00,48.0,-99.9,29.98,WSW,246,6.0,11.0,-999,-99.99,,,-99.99,,2013-02-18 13:12:00,
2013-02-18 05:23:00,49.0,-99.9,29.98,WSW,257,4.0,10.0,-999,-99.99,,,-99.99,,2013-02-18 13:23:00,
2013-02-18 05:33:00,48.0,-99.9,29.98,WSW,237,4.0,8.0,-999,-99.99,,,-99.99,,2013-02-18 13:33:00,
2013-02-18 05:43:00,48.0,-99.9,29.98,West,259,4.0,9.0,-999,-99.99,,,-99.99,,2013-02-18 13:43:00,
2013-02-18 05:53:00,49.0,-99.9,29.99,SW,234,4.0,9.0,-999,-99.99,,,-99.99,,2013-02-18 13:53:00,
2013-02-18 06:02:00,48.0,-99.9,29.98,West,263,3.0,9.0,-999,-99.99,,,-99.99,,2013-02-18 14:02:00,
2013-02-18 06:12:00,48.0,-99.9,29.98,WSW,243,6.0,12.0,-999,-99.99,,,-99.99,,2013-02-18 14:12:00,
2013-02-18 06:22:00,48.0,-99.9,29.98,WSW,256,8.0,13.0,-999,-99.99,,,-99.99,,2013-02-18 14:22:00,
2013-02-18 06:34:00,48.0,-99.9,29.98,WSW,256,8.0,13.0,-999,-99.99,,,-99.99,,2013-02-18 14:34:00,
2013-02-18 06:42:00,48.0,-99.9,29.98,WSW,257,7.0,12.0,-999,-99.99,,,-99.99,,2013-02-18 14:42:00,
2013-02-18 06:54:00,48.0,-99.9,29.98,WSW,250,10.0,14.0,-999,-99.99,,,-99.99,,2013-02-18 14:54:00,
2013-02-18 07:02:00,48.0,-99.9,29.98,WSW,249,7.0,14.0,-999,-99.99,,,-99.99,,2013-02-18 15:02:00,
2013-02-18 07:12:00,48.0,-99.9,29.98,WSW,253,7.0,13.0,-999,-99.99,,,-99.99,,2013-02-18 15:12:00,
2013-02-18 07:22:00,48.0,-99.9,29.98,WSW,243,7.0,11.0,-999,-99.99,,,-99.99,,2013-02-18 15:22:00,
2013-02-18 07:32:00,48.0,-99.9,29.98,WSW,255,5.0,11.0,-999,-99.99,,,-99.99,,2013-02-18 15:32:00,
2013-02-18 07:42:00,48.0,-99.9,29.99,WSW,256,8.0,12.0,-999,-99.99,,,-99.99,,2013-02-18 15:42:00,
2013-02-18 07:53:00,48.0,-99.9,29.99,WSW,253,7.0,12.0,-999,-99.99,,,-99.99,,2013-02-18 15:53:00,
2013-02-18 08:03:00,49.0,-99.9,30.00,West,261,5.0,13.0,-999,-99.99,,,-99.99,,2013-02-18 16:03:00,
2013-02-18 08:12:00,49.0,-99.9,30.00,WSW,257,4.0,9.0,-999,-99.99,,,-99.99,,2013-02-18 16:12:00,
2013-02-18 08:22:00,49.0,-99.9,30.00,WSW,247,6.0,11.0,-999,-99.99,,,-99.99,,2013-02-18 16:22:00,
2013-02-18 08:33:00,49.0,-99.9,30.00,West,259,4.0,13.0,-999,-99.99,,,-99.99,,2013-02-18 16:33:00,
2013-02-18 08:43:00,48.0,-99.9,30.01,WSW,255,8.0,15.0,-999,-99.99,,,-99.99,,2013-02-18 16:43:00,
2013-02-18 08:53:00,48.0,-99.9,30.01,WSW,252,9.0,18.0,-999,-99.99,,,-99.99,,2013-02-18 16:53:00,
2013-02-18 09:04:00,48.0,-99.9,30.01,West,264,6.0,9.0,-999,-99.99,,,-99.99,,2013-02-18 17:04:00,
2013-02-18 09:13:00,49.0,-99.9,30.01,WSW,246,6.0,9.0,-999,-99.99,,,-99.99,,2013-02-18 17:13:00,
2013-02-18 09:22:00,49.0,-99.9,30.02,WSW,245,7.0,11.0,-999,-99.99,,,-99.99,,2013-02-18 17:22:00,
2013-02-18 09:33:00,49.0,-99.9,30.02,WSW,251,3.0,12.0,-999,-99.99,,,-99.99,,2013-02-18 17:33:00,
2013-02-18 09:43:00,49.0,-99.9,30.02,West,264,4.0,11.0,-999,-99.99,,,-99.99,,2013-02-18 17:43:00,
2013-02-18 09:53:00,49.0,-99.9,30.02,West,259,9.0,16.0,-999,-99.99,,,-99.99,,2013-02-18 17:53:00,
2013-02-18 10:03:00,49.0,-99.9,30.01,WSW,250,5.0,13.0,-999,-99.99,,,-99.99,,2013-02-18 18:03:00,
2013-02-18 10:23:00,49.0,-99.9,30.02,WSW,246,7.0,15.0,-999,-99.99,,,-99.99,,2013-02-18 18:23:00,
2013-02-18 10:33:00,49.0,-99.9,30.02,WSW,252,6.0,14.0,-999,-99.99,,,-99.99,,2013-02-18 18:33:00,
2013-02-18 10:43:00,50.0,-99.9,30.02,SW,228,6.0,16.0,-999,-99.99,,,-99.99,,2013-02-18 18:43:00,
2013-02-18 10:53:00,49.0,-99.9,30.02,SW,232,6.0,13.0,-999,-99.99,,,-99.99,,2013-02-18 18:53:00,
2013-02-18 11:03:00,50.0,-99.9,30.02,SSW,208,4.0,18.0,-999,-99.99,,,-99.99,,2013-02-18 19:03:00,
2013-02-18 11:13:00,49.0,-99.9,30.02,WSW,248,9.0,16.0,-999,-99.99,,,-99.99,,2013-02-18 19:13:00,
2013-02-18 11:23:00,49.0,-99.9,30.02,WSW,256,8.0,12.0,-999,-99.99,,,-99.99,,2013-02-18 19:23:00,
2013-02-18 11:34:00,49.0,-99.9,30.02,WSW,255,8.0,13.0,-999,-99.99,,,-99.99,,2013-02-18 19:34:00,
2013-02-18 11:43:00,49.0,-99.9,30.02,WSW,258,11.0,16.0,-999,-99.99,,,-99.99,,2013-02-18 19:43:00,
2013-02-18 11:53:00,49.0,-99.9,30.02,WSW,245,10.0,16.0,-999,-99.99,,,-99.99,,2013-02-18 19:53:00,
2013-02-18 12:03:00,49.0,-99.9,30.02,WSW,256,10.0,14.0,-999,-99.99,,,-99.99,,2013-02-18 20:03:00,
2013-02-18 12:13:00,49.0,-99.9,30.02,WSW,254,10.0,15.0,-999,-99.99,,,-99.99,,2013-02-18 20:13:00,
2013-02-18 12:23:00,49.0,-99.9,30.01,WSW,254,8.0,16.0,-999,-99.99,,,-99.99,,2013-02-18 20:23:00,
2013-02-18 12:34:00,49.0,-99.9,30.01,WSW,255,13.0,19.0,-999,-99.99,,,-99.99,,2013-02-18 20:34:00,
2013-02-18 12:43:00,49.0,-99.9,30.01,WSW,245,9.0,15.0,-999,-99.99,,,-99.99,,2013-02-18 20:43:00,
2013-02-18 12:53:00,49.0,-99.9,30.00,WSW,253,11.0,17.0,-999,-99.99,,,-99.99,,2013-02-18 20:53:00,
2013-02-18 13:03:00,50.0,-99.9,30.00,WSW,246,11.0,17.0,-999,-99.99,,,-99.99,,2013-02-18 21:03:00,
2013-02-18 13:12:00,50.0,-99.9,29.99,WSW,251,11.0,18.0,-999,-99.99,,,-99.99,,2013-02-18 21:12:00,
2013-02-18 13:22:00,50.0,-99.9,29.99,West,267,13.0,20.0,-999,-99.99,,,-99.99,,2013-02-18 21:22:00,
2013-02-18 13:33:00,50.0,-99.9,29.98,West,262,11.0,18.0,-999,-99.99,,,-99.99,,2013-02-18 21:33:00,
2013-02-18 13:43:00,50.0,-99.9,29.97,WSW,254,11.0,18.0,-999,-99.99,,,-99.99,,2013-02-18 21:43:00,
2013-02-18 13:53:00,50.0,-99.9,29.97,West,262,11.0,14.0,-999,-99.99,,,-99.99,,2013-02-18 21:53:00,
2013-02-18 14:03:00,50.0,-99.9,29.97,SW,227,8.0,21.0,-999,-99.99,,,-99.99,,2013-02-18 22:03:00,
2013-02-18 14:13:00,50.0,-99.9,29.97,WSW,240,9.0,15.0,-999,-99.99,,,-99.99,,2013-02-18 22:13:00,
2013-02-18 14:23:00,50.0,-99.9,29.97,WSW,255,9.0,15.0,-999,-99.99,,,-99.99,,2013-02-18 22:23:00,
2013-02-18 14:33:00,50.0,-99.9,29.97,WSW,255,9.0,15.0,-999,-99.99,,,-99.99,,2013-02-18 22:33:00,
2013-02-18 14:44:00,50.0,-99.9,29.97,WSW,240,8.0,19.0,-999,-99.99,,,-99.99,,2013-02-18 22:44:00,
2013-02-18 14:54:00,50.0,-99.9,29.97,WSW,240,8.0,19.0,-999,-99.99,,,-99.99,,2013-02-18 22:54:00,
2013-02-18 15:03:00,50.0,-99.9,29.97,WSW,258,10.0,17.0,-999,-99.99,,,-99.99,,2013-02-18 23:03:00,
2013-02-18 15:12:00,50.0,-99.9,29.97,WSW,251,9.0,16.0,-999,-99.99,,,-99.99,,2013-02-18 23:12:00,
2013-02-18 15:23:00,50.0,-99.9,29.97,West,265,10.0,21.0,-999,-99.99,,,-99.99,,2013-02-18 23:23:00,
2013-02-18 15:34:00,50.0,-99.9,29.97,WSW,244,11.0,16.0,-999,-99.99,,,-99.99,,2013-02-18 23:34:00,
2013-02-18 15:43:00,49.0,-99.9,29.97,WSW,254,10.0,18.0,-999,-99.99,,,-99.99,,2013-02-18 23:43:00,
2013-02-18 15:54:00,50.0,-99.9,29.97,WSW,243,10.0,14.0,-999,-99.99,,,-99.99,,2013-02-18 23:54:00,
2013-02-18 16:03:00,50.0,-99.9,29.96,West,263,9.0,15.0,-999,-99.99,,,-99.99,,2013-02-19 00:03:00,
2013-02-18 16:13:00,50.0,-99.9,29.96,WSW,251,7.0,17.0,-999,-99.99,,,-99.99,,2013-02-19 00:13:00,
2013-02-18 16:23:00,50.0,-99.9,29.96,WSW,245,11.0,15.0,-999,-99.99,,,-99.99,,2013-02-19 00:23:00,
2013-02-18 16:36:00,50.0,-99.9,29.96,WSW,245,8.0,21.0,-999,-99.99,,,-99.99,,2013-02-19 00:36:00,
2013-02-18 16:44:00,50.0,-99.9,29.97,West,263,7.0,18.0,-999,-99.99,,,-99.99,,2013-02-19 00:44:00,
2013-02-18 16:55:00,50.0,-99.9,29.97,West,260,6.0,16.0,-999,-99.99,,,-99.99,,2013-02-19 00:55:00,
2013-02-18 17:03:00,50.0,-99.9,29.96,WSW,247,10.0,14.0,-999,-99.99,,,-99.99,,2013-02-19 01:03:00,
2013-02-18 17:25:00,50.0,-99.9,29.96,WSW,244,7.0,15.0,-999,-99.99,,,-99.99,,2013-02-19 01:25:00,
2013-02-18 17:35:00,50.0,-99.9,29.96,WSW,244,7.0,15.0,-999,-99.99,,,-99.99,,2013-02-19 01:35:00,
2013-02-18 17:45:00,49.0,-99.9,29.96,WSW,250,13.0,21.0,-999,-99.99,,,-99.99,,2013-02-19 01:45:00,
2013-02-18 17:57:00,49.0,-99.9,29.96,WSW,258,14.0,19.0,-999,-99.99,,,-99.99,,2013-02-19 01:57:00,
2013-02-18 18:04:00,49.0,-99.9,29.96,WSW,251,7.0,19.0,-999,-99.99,,,-99.99,,2013-02-19 02:04:00,
2013-02-18 18:14:00,49.0,-99.9,29.96,WSW,254,12.0,20.0,-999,-99.99,,,-99.99,,2013-02-19 02:14:00,
2013-02-18 18:23:00,49.0,-99.9,29.96,WSW,245,9.0,14.0,-999,-99.99,,,-99.99,,2013-02-19 02:23:00,
2013-02-18 18:35:00,49.0,-99.9,29.96,West,260,10.0,15.0,-999,-99.99,,,-99.99,,2013-02-19 02:35:00,
2013-02-18 18:44:00,49.0,-99.9,29.96,WSW,247,7.0,15.0,-999,-99.99,,,-99.99,,2013-02-19 02:44:00,
2013-02-18 18:56:00,49.0,-99.9,29.96,WSW,257,9.0,18.0,-999,-99.99,,,-99.99,,2013-02-19 02:56:00,
2013-02-18 19:08:00,49.0,-99.9,29.95,West,260,8.0,15.0,-999,-99.99,,,-99.99,,2013-02-19 03:08:00,
2013-02-18 19:15:00,49.0,-99.9,29.95,WSW,242,9.0,14.0,-999,-99.99,,,-99.99,,2013-02-19 03:15:00,
2013-02-18 19:25:00,49.0,-99.9,29.95,WSW,243,9.0,17.0,-999,-99.99,,,-99.99,,2013-02-19 03:25:00,
2013-02-18 19:35:00,49.0,-99.9,29.96,WSW,252,10.0,17.0,-999,-99.99,,,-99.99,,2013-02-19 03:35:00,
2013-02-18 19:45:00,49.0,-99.9,29.96,WSW,245,6.0,16.0,-999,-99.99,,,-99.99,,2013-02-19 03:45:00,
2013-02-18 19:55:00,49.0,-99.9,29.96,WSW,252,6.0,14.0,-999,-99.99,,,-99.99,,2013-02-19 03:55:00,
2013-02-18 20:03:00,49.0,-99.9,29.96,WSW,248,8.0,13.0,-999,-99.99,,,-99.99,,2013-02-19 04:03:00,
2013-02-18 20:15:00,49.0,-99.9,29.96,West,264,7.0,17.0,-999,-99.99,,,-99.99,,2013-02-19 04:15:00,
2013-02-18 20:24:00,49.0,-99.9,29.95,WSW,256,12.0,16.0,-999,-99.99,,,-99.99,,2013-02-19 04:24:00,
2013-02-18 20:34:00,49.0,-99.9,29.95,West,263,9.0,16.0,-999,-99.99,,,-99.99,,2013-02-19 04:34:00,
2013-02-18 20:45:00,49.0,-99.9,29.96,WSW,241,11.0,15.0,-999,-99.99,,,-99.99,,2013-02-19 04:45:00,
2013-02-18 20:56:00,49.0,-99.9,29.96,WSW,254,8.0,14.0,-999,-99.99,,,-99.99,,2013-02-19 04:56:00,
2013-02-18 21:02:00,49.0,-99.9,29.96,WSW,254,8.0,14.0,-999,-99.99,,,-99.99,,2013-02-19 05:02:00,
2013-02-18 21:13:00,49.0,-99.9,29.96,WSW,253,13.0,20.0,-999,-99.99,,,-99.99,,2013-02-19 05:13:00,
2013-02-18 21:23:00,49.0,-99.9,29.96,WSW,250,10.0,17.0,-999,-99.99,,,-99.99,,2013-02-19 05:23:00,
2013-02-18 21:33:00,49.0,-99.9,29.96,West,265,13.0,21.0,-999,-99.99,,,-99.99,,2013-02-19 05:33:00,
2013-02-18 21:43:00,49.0,-99.9,29.96,WSW,254,11.0,17.0,-999,-99.99,,,-99.99,,2013-02-19 05:43:00,
2013-02-18 21:52:00,49.0,-99.9,29.97,WSW,250,12.0,15.0,-999,-99.99,,,-99.99,,2013-02-19 05:52:00,
2013-02-18 22:03:00,49.0,-99.9,29.97,WSW,256,10.0,16.0,-999,-99.99,,,-99.99,,2013-02-19 06:03:00,
2013-02-18 22:12:00,49.0,-99.9,29.97,WSW,246,6.0,13.0,-999,-99.99,,,-99.99,,2013-02-19 06:12:00,
2013-02-18 22:22:00,49.0,-99.9,29.97,WSW,254,10.0,15.0,-999,-99.99,,,-99.99,,2013-02-19 06:22:00,
2013-02-18 22:33:00,49.0,-99.9,29.97,WSW,252,11.0,15.0,-999,-99.99,,,-99.99,,2013-02-19 06:33:00,
2013-02-18 22:42:00,49.0,-99.9,29.96,West,262,7.0,13.0,-999,-99.99,,,-99.99,,2013-02-19 06:42:00,
2013-02-18 22:53:00,49.0,-99.9,29.96,WSW,248,9.0,15.0,-999,-99.99,,,-99.99,,2013-02-19 06:53:00,
2013-02-18 23:02:00,49.0,-99.9,29.96,West,261,6.0,16.0,-999,-99.99,,,-99.99,,2013-02-19 07:02:00,
2013-02-18 23:12:00,49.0,-99.9,29.96,WSW,253,6.0,13.0,-999,-99.99,,,-99.99,,2013-02-19 07:12:00,
2013-02-18 23:22:00,49.0,-99.9,29.96,WSW,254,8.0,13.0,-999,-99.99,,,-99.99,,2013-02-19 07:22:00,
2013-02-18 23:32:00,48.0,-99.9,29.96,WSW,258,10.0,16.0,-999,-99.99,,,-99.99,,2013-02-19 07:32:00,
2013-02-18 23:42:00,48.0,-99.9,29.95,WSW,253,9.0,19.0,-999,-99.99,,,-99.99,,2013-02-19 07:42:00,
2013-02-18 23:52:00,49.0,-99.9,29.95,WSW,256,6.0,12.0,-999,-99.99,,,-99.99,,2013-02-19 07:52:00,